Location: Street
(51.1247°N, 2.7429°W)
Time: 16:18:26
(UTC+01:00)

CAS-6 - Pass Details

Date: 04 April 2023
Orbit: 610 x 632 km, 97.9° (Epoch: 03 June)

Event Time Altitude Azimuth Distance (km) Brightness Sun altitude
Exits shadow 23:30:42 47° 326° (NNW) 839 ? -28.8°
Drops below altitude 10° 23:33:54 10° 342° (NNW) 2,015 ? -29.1°
Sets 23:36:08 0° 345° (NNW) 2,930 ? -29.3°
